Preview of NWS' New Version of Forecast
This preview is not operational and should not be used for support decisions.
Latest weather observations around

Columbia, Columbia Regional Airport (KCOU)

Using English Units (Switch to International System of Units)
Date/ Time (CDT) Wind (mph) Vis. (mi) Weather Sky Cond. Temp (°F) Rel. Humidity Wind Chill (°F) Heat Index (°F) Pressure Precip. (in)
Air Dwpt 6 hour Altimeter (inHg) Sea level (inHg) 1 hr 3 hr 6 hr
Max Min
Jun 19 12:54 S 7 6 Rain and Fog/Mist BKN075 OVC110 70 66     87%     29.72 29.7 0   0
Jun 19 11:54 SW 6 10 Light Rain OVC110 70 65     84%     29.74 29.71 0    
Jun 19 10:54 W 6 10 Mostly Cloudy FEW015 BKN110 71 64     79%   72 29.74 29.71      
Jun 19 09:54 WSW 8 10 Mostly Clear FEW120 70 64     81%     29.75 29.72   0  
Jun 19 08:54 SW 9 10 Mostly Cloudy FEW038 BKN110 69 65     87%     29.75 29.73 0    
Jun 19 07:56 SSW 9 10 Rain OVC060 69 66     90%     29.77   0    
Jun 19 07:54 SSW 10 6 Rain and Fog/Mist BKN011 BKN075 OVC110 69 66     90%     29.77 29.74 0    
Jun 19 07:23 SSW 6 6 Rain and Fog/Mist BKN011 BKN075 OVC110 69 66     90%     29.76   0    
Jun 19 07:13 SSW 8 6 Rain and Fog/Mist BKN011 BKN075 OVC110 69 66     90%     29.76   0    
Jun 19 06:54 SW 8 10 Cloudy FEW011 SCT100 OVC120 69 66     90%     29.75 29.73      
Jun 19 06:20 S 5 8 Cloudy SCT020 OVC120 70 67     90%     29.75        
Jun 19 06:03 S 6 8 Cloudy SCT011 OVC019 70 67     90%     29.75        
Jun 19 05:54 S 7 7 Cloudy BKN013 OVC019 70 67     90%     29.75 29.72      
Jun 19 05:14 SSE 5 8 Mostly Cloudy BKN013 70 67     90%     29.74        
Jun 19 04:54 SSE 6 9 Mostly Clear FEW022 70 67     90%     29.75 29.72      
Jun 19 04:40 SE 7 10 Partly Cloudy FEW020 SCT027 SCT034 71 67     87%   72 29.74        
Jun 19 04:18 SE 5 9 Mostly Cloudy BKN027 BKN034 70 67     90%     29.75        
Jun 19 03:54 ESE 6 10 Mostly Cloudy FEW029 BKN100 71 67     87%   72 29.75 29.72      
Jun 19 02:54 ESE 5 10 Mostly Cloudy FEW036 BKN060 BKN120 72 67     84%   73 29.77 29.74      
Jun 19 01:54 ESE 3 10 Mostly Cloudy FEW037 SCT046 BKN120 72 67     84%   73 29.79 29.77      
Jun 19 00:54 E 7 10 Clear CLR 72 67     84%   73 29.81 29.79      
Jun 18 23:54 E 3 10 Mostly Cloudy SCT060 BKN085 73 68     84%   74 29.84 29.81      
Jun 18 22:54 Calm 10 Mostly Cloudy BKN040 74 69     85%   75 29.86 29.83      
Jun 18 21:54 E 3 10 Mostly Cloudy FEW042 BKN050 75 69     82%   76 29.85 29.82      
Jun 18 20:54 Calm 10 Mostly Clear FEW055 76 67     74%   77 29.85 29.83      
Jun 18 19:54 ENE 3 10 Clear CLR 78 67     69%   79 29.85 29.83      
Jun 18 18:54 Calm 10 Partly Cloudy SCT055 79 66     65%   80 29.84 29.81      
Jun 18 17:54 Calm 10 Clear CLR 81 65     58%   83 29.84 29.82      
Jun 18 16:54 Calm 10 Partly Cloudy SCT030 80 65     60%   82 29.86 29.84      
Jun 18 15:54 ENE 6 10 Mostly Clear FEW030 81 66     61%   83 29.88 29.86      
Jun 18 15:01 3 10 Partly Cloudy FEW026 SCT043 79 66     65%   80 29.9        
Jun 18 14:54 3 10 Mostly Cloudy BKN027 BKN031 BKN043 80 66     62%   82 29.91 29.88      
Jun 18 14:10 3 10 Mostly Cloudy BKN027 BKN041 78 65     64%   79 29.92        
Jun 18 13:54 Calm 10 Mostly Cloudy SCT027 BKN039 78 65     64%   79 29.93 29.91      
Jun 18 13:11 N 9 10 Mostly Cloudy SCT029 BKN034 76 66     71%   77 29.94        
Jun 18 12:54 N 9 9 Cloudy OVC028 76 67     74%   77 29.95 29.93      
Jun 18 11:54 NNE 7 7 Cloudy OVC020 73 66     79%   74 29.96 29.94      
Jun 18 10:54 NNE 6 5 Haze SCT007 OVC015 72 66     82%   73 29.96 29.94      
Jun 18 10:25 N 3 4 Haze SCT007 OVC015 71 66     84%   72 29.96        
Jun 18 09:56 NNE 3 4 Fog/Mist OVC006 70 66     87%     29.96        
Jun 18 09:54 NNE 3 3 Haze OVC004 71 66     84%   72 29.96 29.95      
Jun 18 08:54 ESE 6 3 Fog/Mist OVC004 69 66     90%     29.95 29.93      
Jun 18 07:59 SE 5 1 Fog/Mist OVC002 68 66     93%     29.95        
Jun 18 07:54 E 5 0.5 Fog OVC002 68 66     93%     29.95 29.93      
Jun 18 06:54 ENE 6 0.75 Fog/Mist OVC002 67 65     93%     29.95 29.93      
Jun 18 06:04 E 3 1.25 Fog/Mist OVC002 67 65     93%     29.94        
Jun 18 05:54 ENE 6 2.5 Fog/Mist OVC002 67 65     93%     29.94 29.92      
Jun 18 05:46 ENE 5 3 Fog/Mist OVC002 67 65     93%     29.93        
Jun 18 05:31 E 9 1 Fog/Mist VV002 67 65     93%     29.93        
Jun 18 05:09 E 8 0.75 Fog/Mist VV002 67 65     93%     29.92        
Jun 18 04:54 ENE 8 1.5 Fog/Mist OVC003 67 65     93%     29.92 29.91      
Jun 18 04:46 NE 8 2 Fog/Mist OVC003 67 65     93%     29.93        
Jun 18 04:24 ENE 6 1 Fog/Mist VV003 67 65     93%     29.94        
Jun 18 03:54 ENE 7 0.75 Fog/Mist VV003 66 65     96%     29.94 29.92      
Jun 18 03:03 NE 6 0.5 Fog VV002 66 64     93%     29.95        
Jun 18 02:54 NE 5 1.5 Fog/Mist OVC002 66 64     93%     29.96 29.94      
Jun 18 02:51 NE 6 2.5 Fog/Mist OVC002 66 64     94%     29.96        
Jun 18 02:31 ENE 5 5 Fog/Mist BKN006 OVC100 66 64     93%     29.96        
Jun 18 02:11 E 6 3 Fog/Mist BKN002 OVC100 66 64     93%     29.97        
Jun 18 02:06 ENE 6 1.75 Fog/Mist OVC002 66 64     93%     29.97        
Jun 18 01:54 ENE 5 0.5 Fog VV002 66 64     93%     29.98 29.96      
Jun 18 01:43 E 6 0.75 Fog/Mist OVC003 66 64     93%     29.98        
Jun 18 01:40 E 6 1.5 Fog/Mist OVC005 66 64     93%     29.97        
Jun 18 01:30 ENE 6 9 Mostly Cloudy BKN005 66 63     90%     29.98        
Jun 18 01:08 NE 6 7 Mostly Clear FEW001 65 63     93%     29.97        
Jun 18 01:01 NE 7 2 Fog/Mist FEW001 SCT100 64 62     93%     29.97        
Jun 18 00:54 NNE 6 0.5 Fog SCT002 SCT100 64 62     93%     29.96 29.95      
Jun 18 00:49 NNE 5 0.75 Fog/Mist FEW002 SCT100 64 63     94%     29.97        
Jun 18 00:46 N 3 1.5 Fog/Mist FEW012 SCT100 65 63     93%     29.97        
Jun 17 23:54 NE 6 10 Mostly Cloudy BKN110 65 63     93%     29.97 29.95      
Jun 17 23:09 ENE 5 5 Fog/Mist SCT002 66 64     93%     29.96        
Jun 17 22:54 Calm 7 Mostly Clear FEW049 66 64     93%     29.96 29.94      
Jun 17 21:54 N 3 10 Partly Cloudy SCT050 67 64     90%     29.96 29.94      
Jun 17 20:54 NNW 6 10 Clear CLR 67 65     93%     29.95 29.93      
Jun 17 20:15 WNW 5 10 Partly Cloudy FEW004 SCT120 68 65     90%     29.94        
Jun 17 19:54 Calm 10 Mostly Clear FEW110 68 66     93%     29.94 29.92      
Jun 17 18:54 E 9 10 Mostly Cloudy FEW049 SCT080 BKN110 68 65     90%     29.94 29.92     0
Jun 17 17:54 E 8 10 Mostly Clear FEW120 68 64     87%     29.93 29.91 0    
Jun 17 16:54 ENE 8 10 Light Rain OVC110 67 64     90%     29.93 29.91 0    
Jun 17 16:11 NE 8 10 Light Rain BKN110 67 63     87%     29.94   0    
Jun 17 16:01 NNE 3 5 Fog/Mist BKN006 OVC110 67 63     87%     29.95        
Jun 17 15:54 NNE 5 4 Fog/Mist BKN006 OVC110 67 63     87%     29.96 29.93 0 0  
Jun 17 15:44 NE 8 4 Fog/Mist BKN006 OVC110 67 63     87%     29.96   0    
Jun 17 15:27 NNE 6 10 Light Rain FEW080 OVC110 68 65     90%     29.96   0    
Jun 17 15:01 NW 8 2 Rain and Fog/Mist BKN007 BKN040 OVC080 69 65     87%     29.97   0    
Jun 17 14:54 W 8 0.75 Heavy Rain and Fog/Mist BKN007 OVC034 69 66     90%     29.98 29.96 0    
Jun 17 14:45 SSW 8 1.5 Heavy Rain and Fog/Mist OVC007 70 67     90%     29.99   0    
Jun 17 13:54 Calm 4 Fog/Mist OVC006 70 67     90%     29.98 29.96      
Jun 17 12:54 NE 10 5 Haze OVC006 71 66     84%   72 29.97 29.95     0
Jun 17 11:54 NNE 10 8 Cloudy OVC007 72 67     84%   73 29.96 29.94      
Jun 17 10:54 NNE 9 7 Cloudy OVC006 71 67     87%   72 29.96 29.93      
Jun 17 09:54 NE 8 7 Cloudy OVC006 71 67     87%   72 29.95 29.93 0 0  
Jun 17 08:54 NE 7 7 Cloudy OVC005 71 67     87%   72 29.94 29.91      
Jun 17 07:54 NE 7 6 Fog/Mist OVC005 70 67     90%     29.92 29.89      
Jun 17 06:54 NE 7 7 Mostly Clear FEW110 70 67     90%     29.9 29.88      
Jun 17 05:54 NE 7 7 Mostly Cloudy BKN110 69 67     93%     29.89 29.86      
Jun 17 04:54 ENE 6 10 Mostly Cloudy BKN120 69 66     90%     29.89 29.86      
Jun 17 03:54 NE 3 10 Mostly Clear FEW080 70 66     87%     29.88 29.85      
Jun 17 02:54 NNE 5 10 Mostly Cloudy SCT022 BKN037 BKN045 71 66     84%   72 29.89 29.87      
Jun 17 01:54 N 6 10 Cloudy BKN035 OVC100 71 66     84%   72 29.9 29.88      
Jun 17 00:54 E 3 10 Clear   71 65     81%   72 29.87 29.85      
Jun 16 23:54 Calm 10 Mostly Cloudy BKN110 71 66     84%   72 29.89 29.86      
Jun 16 22:54 ENE 3 10 Cloudy OVC120 73 68     84%   74 29.9 29.87      
Jun 16 21:54 ENE 3 10 Mostly Cloudy BKN120 73 67     81%   74 29.88 29.86      
Jun 16 20:54 NNE 5 10 Partly Cloudy SCT120 76 69     79%   77 29.87 29.84      
Jun 16 19:54 SW 5 10 Mostly Clear FEW120 77 68     74%   78 29.85 29.82      
Jun 16 18:54 W 8 10 Mostly Clear FEW036 80 69     69%   83 29.83 29.8      
Jun 16 17:54 W 9 10 Mostly Clear FEW029 FEW038 82 69     65%   85 29.81 29.78      
Jun 16 16:54 WSW 6 10 Mostly Clear FEW031 83 68     61%   86 29.83 29.8      
Jun 16 15:54 SW 11 10 Mostly Clear FEW036 83 66     57%   85 29.85 29.83      
Jun 16 14:54 SW 6 10 Clear CLR 82 68     63%   85 29.85 29.83      
Jun 16 13:54 WSW 9 10 Clear CLR 81 67     62%   83 29.86 29.83      
Jun 16 12:54 SW 7 10 Clear CLR 78 65     64%   79 29.86 29.83     1
Jun 16 11:54 SW 8 10 Clear CLR 74 66     76%   75 29.86 29.83 0    
May 15 03:54 SSE 9 10 Clear   66 60     81%     29.91 29.89      
May 14 21:01   10 Thunderstorms and Rain FEW080 BKN110 67 64     90%     29.84   0    
May 14 19:49   9 Thunderstorms and Rain FEW032 SCT060 OVC110 66 63     88%     29.92   0    
May 12 12:54 SSE 11 10 Clear CLR 76 66     71%   77 29.96 29.94      
May 11 19:54 S 10 10 Clear CLR 79 58     49%   79 29.8 29.77      
Jun 12 01:54 S 7 10 Clear CLR 73 66     79%   74 29.94 29.91      
Jun 11 10:54 S 18 10 Clear CLR 81 67     62%   83 29.96 29.93      
Jun 10 20:54 S 10 10 Clear CLR 77 62     60%   77 29.86 29.83      
Jun 10 06:54 S 8 10 Clear CLR 64 59     84%     29.92 29.9      
Jun 08 19:54 S 5 10 Clear CLR 74 54     50%   73 29.92 29.91      
Jun 07 07:54 NE 8 10 Clear CLR 64 49     58%     30.1 30.09      
Jun 06 05:54 NE 11 10 Clear CLR 63 53     70%     29.97 29.94